Weather History for Hutchinson, MN

Change the Weather History Date:

Sunday, December 15, 2013

  Actual Average Record
Temperature  
Mean Temperature 2 °F -  
Max Temperature 4 °F 27 °F 49 °F (1957)
Min Temperature 0 °F 10 °F -17 °F (1961)
Degree Days  
Heating Degree Days 63    
Moisture  
Dew Point -6 °F    
Average Humidity 72    
Maximum Humidity 78    
Minimum Humidity 61    
Precipitation  
Precipitation 0.00 in - - ()
Sea Level Pressure  
Sea Level Pressure 30.10 in    
Wind  
Wind Speed - (North)    
Max Wind Speed -    
Max Gust Speed -    
Visibility 9 miles    
Events Snow    
Averages and records for this station are not official NWS values.
T = Trace of Precipitation, MM = Missing Value Source: NWS Daily Summary

Daily Weather History Graph

Daily Weather History Graph

Search for Another Location

Airport:

Trip Planner

Search our weather history database for the weather conditions in past years. The results will help you decide how hot, cold, wet, or windy it might be!

Date:

Astronomy

Dec. 15, 2013 Rise Set
Actual Time 7:48 AM CST 4:37 PM CST
Civil Twilight 7:14 AM CST 5:10 PM CST
Nautical Twilight 6:37 AM CST 5:47 PM CST
Astronomical Twilight 6:02 AM CST 6:23 PM CST
Moon 3:44 PM CST (12/15) 6:02 AM CST (12/15)
Length of Visible Light 9h 55m
Length of Day
8h 48m
Waxing Gibbous, 98% of the Moon is Illuminated
Dec 15
Waxing Gibbous
Dec 17
Full
Dec 25
Last Quarter
Jan 1
New
Jan 7
First Quarter

Hourly Weather History & Observations

Time (CST) Temp. Dew Point Humidity Pressure Visibility Wind Dir Wind Speed Gust Speed Precip Events Conditions
12:13 AM -0.6 °F -6.9 °F 75% 30.11 in 10.0 mi North - - N/A   Overcast
12:33 AM -0.4 °F -7.1 °F 73% 30.11 in 10.0 mi North - - N/A   Scattered Clouds
12:53 AM -0.4 °F -7.6 °F 72% 30.11 in 10.0 mi North - - N/A   Mostly Cloudy
1:13 AM -0.6 °F -7.4 °F 73% 30.11 in 10.0 mi North - - N/A   Overcast
1:33 AM -0.8 °F -7.6 °F 73% 30.10 in 10.0 mi North - - N/A   Overcast
1:53 AM -0.8 °F -7.6 °F 73% 30.10 in 10.0 mi North - - N/A   Overcast
2:13 AM -0.8 °F -7.1 °F 75% 30.11 in 10.0 mi North - - N/A   Overcast
2:33 AM -0.6 °F -6.9 °F 75% 30.12 in 10.0 mi North - - N/A   Overcast
2:53 AM -0.6 °F -6.7 °F 75% 30.12 in 10.0 mi North - - N/A   Overcast
3:13 AM -0.6 °F -6.9 °F 75% 30.12 in 10.0 mi North - - N/A   Overcast
3:33 AM -0.6 °F -6.9 °F 75% 30.11 in 10.0 mi North - - N/A   Overcast
3:53 AM -0.6 °F -6.7 °F 75% 30.11 in 10.0 mi North - - N/A   Overcast
4:13 AM -0.4 °F -6.7 °F 75% 30.12 in 10.0 mi North - - N/A   Overcast
4:33 AM -0.4 °F -6.7 °F 75% 30.12 in 10.0 mi North - - N/A   Overcast
4:53 AM -0.4 °F -6.3 °F 76% 30.12 in 10.0 mi North - - N/A   Overcast
5:13 AM -0.2 °F -6.3 °F 75% 30.11 in 10.0 mi North - - N/A   Overcast
5:33 AM -0.0 °F -6.2 °F 75% 30.11 in 10.0 mi North - - N/A   Overcast
5:53 AM 0.3 °F -5.8 °F 75% 30.11 in 10.0 mi North - - N/A   Overcast
6:12 AM 0.3 °F -6.2 °F 74% 30.11 in 10.0 mi North - - N/A   Overcast
6:33 AM 0.3 °F -6.2 °F 74% 30.11 in 10.0 mi North - - N/A   Overcast
6:53 AM 0.5 °F -6.0 °F 74% 30.10 in 10.0 mi North - - N/A   Overcast
7:13 AM 0.5 °F -6.0 °F 74% 30.11 in 10.0 mi North - - N/A   Overcast
7:33 AM 0.7 °F -6.3 °F 72% 30.11 in 10.0 mi North - - N/A   Overcast
7:53 AM 0.7 °F -6.2 °F 73% 30.11 in 10.0 mi North - - N/A   Overcast
8:13 AM 0.9 °F -6.0 °F 73% 30.11 in 10.0 mi North - - N/A   Overcast
8:33 AM 0.9 °F -6.3 °F 72% 30.12 in 10.0 mi North - - N/A   Overcast
8:53 AM 0.9 °F -6.5 °F 71% 30.12 in 10.0 mi North - - N/A   Overcast
9:13 AM 1.2 °F -6.2 °F 71% 30.12 in 10.0 mi North - - N/A   Overcast
9:33 AM 1.4 °F -6.2 °F 71% 30.13 in 10.0 mi North - - N/A   Overcast
9:53 AM 1.4 °F -6.0 °F 71% 30.13 in 10.0 mi North - - N/A   Overcast
10:13 AM 1.9 °F -5.8 °F 70% 30.14 in 10.0 mi North - - N/A   Overcast
10:33 AM 2.1 °F -6.0 °F 69% 30.14 in 10.0 mi North - - N/A   Overcast
10:53 AM 2.3 °F -6.2 °F 68% 30.14 in 10.0 mi North - - N/A   Overcast
11:13 AM 2.1 °F -6.0 °F 69% 30.12 in 10.0 mi North - - N/A   Overcast
11:33 AM 2.3 °F -5.8 °F 69% 30.12 in 10.0 mi North - - N/A   Overcast
11:52 AM 2.3 °F -6.0 °F 68% 30.12 in 10.0 mi North - - N/A   Overcast
12:13 PM 2.8 °F -6.3 °F 66% 30.12 in 10.0 mi North - - N/A   Overcast
12:33 PM 3.2 °F -6.2 °F 65% 30.11 in 10.0 mi North - - N/A   Overcast
12:53 PM 3.9 °F -6.3 °F 62% 30.10 in 10.0 mi North - - N/A   Mostly Cloudy
1:13 PM 3.7 °F -6.9 °F 61% 30.09 in 10.0 mi North - - N/A   Scattered Clouds
1:33 PM 4.6 °F -5.6 °F 63% 30.07 in 10.0 mi North - - N/A   Clear
1:53 PM 3.9 °F -5.6 °F 65% 30.08 in 10.0 mi North - - N/A   Scattered Clouds
2:13 PM 3.6 °F -5.6 °F 66% 30.08 in 10.0 mi North - - N/A   Scattered Clouds
2:33 PM 3.9 °F -5.8 °F 64% 30.08 in 10.0 mi North - - N/A   Scattered Clouds
2:53 PM 3.4 °F -5.8 °F 66% 30.08 in 10.0 mi North - - N/A   Mostly Cloudy
3:14 PM 3.2 °F -5.8 °F 66% 30.08 in 10.0 mi North - - N/A   Scattered Clouds
3:33 PM 3.2 °F -5.4 °F 67% 30.08 in 10.0 mi North - - N/A   Mostly Cloudy
3:53 PM 3.2 °F -5.8 °F 66% 30.09 in 10.0 mi North - - N/A   Overcast
4:14 PM 3.2 °F -5.6 °F 67% 30.09 in 10.0 mi North - - N/A   Overcast
4:33 PM 3.2 °F -5.4 °F 67% 30.09 in 10.0 mi North - - N/A   Overcast
4:53 PM 3.2 °F -5.6 °F 67% 30.10 in 10.0 mi North - - N/A   Overcast
5:14 PM 3.2 °F -5.6 °F 67% 30.10 in 10.0 mi North - - N/A   Overcast
5:33 PM 3.4 °F -5.3 °F 67% 30.10 in 10.0 mi North - - N/A   Overcast
5:53 PM 3.2 °F -5.3 °F 68% 30.10 in 10.0 mi North - - N/A   Overcast
6:13 PM 3.2 °F -5.3 °F 68% 30.09 in 10.0 mi North - - N/A   Overcast
6:33 PM 3.0 °F -4.9 °F 70% 30.10 in 5.0 mi North - - N/A Snow Light Snow
6:53 PM 3.0 °F -4.5 °F 71% 30.10 in 7.0 mi North - - N/A Snow Light Snow
7:13 PM 2.3 °F -4.5 °F 73% 30.10 in 4.0 mi North - - N/A Snow Light Snow
7:34 PM 2.3 °F -4.5 °F 73% 30.10 in 4.0 mi North - - N/A Snow Light Snow
7:53 PM 2.1 °F -4.2 °F 75% 30.09 in 2.5 mi North - - N/A Snow Light Snow
8:13 PM 1.9 °F -4.0 °F 76% 30.09 in 4.0 mi North - - N/A Snow Light Snow
8:33 PM 2.1 °F -3.3 °F 78% 30.10 in 7.0 mi North - - N/A Snow Light Snow
8:53 PM 1.9 °F -4.0 °F 76% 30.10 in 10.0 mi North - - N/A Snow Light Snow
9:13 PM 1.9 °F -4.0 °F 76% 30.09 in 5.0 mi North - - N/A Snow Light Snow
9:33 PM 1.9 °F -4.0 °F 76% 30.09 in 10.0 mi North - - N/A Snow Light Snow
9:53 PM 1.9 °F -4.0 °F 76% 30.09 in 10.0 mi North - - N/A   Overcast
10:13 PM 2.3 °F -3.6 °F 76% 30.09 in 10.0 mi North - - N/A   Overcast
10:33 PM 2.1 °F -3.6 °F 77% 30.09 in 10.0 mi North - - N/A   Overcast
10:53 PM 2.3 °F -3.6 °F 76% 30.09 in 10.0 mi North - - N/A   Overcast
11:13 PM 2.3 °F -4.0 °F 75% 30.09 in 10.0 mi North - - N/A   Overcast
11:33 PM 2.3 °F -3.8 °F 76% 30.08 in 10.0 mi North - - N/A   Overcast
11:53 PM 2.3 °F -3.5 °F 77% 30.08 in 10.0 mi North - - N/A   Overcast